SCP
0 0 0 0 0 0 0 0 0 0 0 0 0 0 0 0 0 0 0 0 0 0 0 0 0 0 0 0 0 0 0 0 0 0 0 0 0 0 0 0 0 0 0
0 0 0 0 0 0 0 0 0 0 0 0 0 0 0 0 0 0 0 0 0 0 0 0 0 0 0 0 0 0 0 0 0 0 0 0 0 0 0 0 0 0 0
0 0 0 0 0 0 0 0 0 0 0 0 0 0 0 0 0 0 0 0 0 0 0 0 0 0 0 0 0 0 0 0 0 0 0 0 0 0 0 0 0 0 0
0 0 0 0 0 0 0 0 0 0 0 0 0 0 0 0 0 0 0 0 0 0 0 0 0 0 0 0 0 0 0 0 0 0 0 0 0 0 0 0 0 0 0
0 0 0 0 0 0 0 0 0 0 0 0 0 0 0 0 0 0 0 0 0 0 0 0 0 0 0 0 0 0 0 0 0 0 0 0 0 0 0 0 0 0 0
0 0 0 0 0 0 0 0 0 0 0 0 0 0 0 0 0 0 0 0 0 0 0 0 0 0 0 0 0 0 0 0 0 0 0 0 0 0 0 0 0 0 0
0 0 0 0 0 0 0 0 0 0 0 0 0 0 0 0 0 0 0 0 0 0 0 0 0 0 0 0 0 0 0 0 0 0 0 0 0 0 0 0 0 0 0
0 0 0 0 0 0 0 0 0 0 0 0 0 0 0 0 0 0 0 0 0 0 0 0 0 0 0 0 0 0 0 0 0 0 0 0 0 0 0 0 0 0 0
0 0 0 0 0 0 0 0 0 0 0 0 0 0 0 0 0 0 0 0 0 0 0 0 0 0 0 0 0 0 0 0 0 0 0 0 0 0 0 0 0 0 0
0 0 0 0 0 0 0 0 0 0 0 0 0 0 0 0 0 0 0 0 0 0 0 0 0 0 0 0 0 0 0 0 0 0 0 0 0 0 0 0 0 0 0
0 0 0 0 0 0 0 0 0 0 0 0 0 0 0 0 0 0 0 0 0 0 0 0 0 0 0 0 0 0 0 0 0 0 0 0 0 0 0 0 0 0 0
0 0 0 0 0 0 0 0 0 0 0 0 0 0 0 0 0 0 0 0 0 0 0 0 0 0 0 0 0 0 0 0 0 0 0 0 0 0 0 0 0 0 0
0 0 0 0 0 0 0 0 0 0 0 0 0 0 0 0 0 0 0 0 0 0 0 0 0 0 0 0 0 0 0 0 0 0 0 0 0 0 0 0 0 0 0
0 0 0 0 0 0 0 0 0 0 0 0 0 0 0 0 0 0 0 0 0 0 0 0 0 0 0 0 0 0 0 0 0 0 0 0 0 0 0 0 0 0 0
0 0 0 0 0 0 0 0 0 0 0 0 0 0 0 0 0 0 0 0 0 0 0 0 0 0 0 0 0 0 0 0 0 0 0 0 0 0 0 0 0 0 0
0 0 0 0 0 0 0 0 0 0 0 0 0 0 0 0 0 0 0 0 0 0 0 0 0 0 0 0 0 0 0 0 0 0 0 0 0 0 0 0 0 0 0
0 0 0 0 0 0 0 0 0 0 0 0 0 0 0 0 0 0 0 0 0 0 0 0 0 0 0 0 0 0 0 0 0 0 0 0 0 0 0 0 0 0 0
0 0 0 0 0 0 0 0 0 0 0 0 0 0 0 0 0 0 0 0 0 0 0 0 0 0 0 0 0 0 0 0 0 0 0 0 0 0 0 0 0 0 0
0 0 0 0 0 0 0 0 0 0 0 0 0 0 0 0 0 0 0 0 0 0 0 0 0 0 0 0 0 0 0 0 0 0 0 0 0 0 0 0 0 0 0
0 0 0 0 0 0 0 0 0 0 0 0 0 0 0 0 0 0 0 0 0 0 0 0 0 0 0 0 0 0 0 0 0 0 0 0 0 0 0 0 0 0 0
0 0 0 0 0 0 0 0 0 0 0 0 0 0 0 0 0 0 0 0 0 0 0 0 0 0 0 0 0 0 0 0 0 0 0 0 0 0 0 0 0 0 0
0 0 0 0 0 0 0 0 0 0 0 0 0 0 0 0 0 0 0 0 0 0 0 0 0 0 0 0 0 0 0 0 0 0 0 0 0 0 0 0 0 0 0
0 0 0 0 0 0 0 0 0 0 0 0 0 0 0 0 0 0 0 0 0 0 0 0 0 0 0 0 0 0 0 0 0 0 0 0 0 0 0 0 0 0 0
0 0 0 0 0 0 0 0 0 0 0 0 0 0 0 0 0 0 0 0 0 0 0 0 0 0 0 0 0 0 0 0 0 0 0 0 0 0 0 0 0 0 0
0 0 0 0 0 0 0 0 0 0 0 0 0 0 0 0 0 0 0 0 0 0 0 0 0 0 0 0 0 0 0 0 0 0 0 0 0 0 0 0 0 0 0
0 0 0 0 0 0 0 0 0 0 0 0 0 0 0 0 0 0 0 0 0 0 0 0 0 0 0 0 0 0 0 0 0 0 0 0 0 0 0 0 0 0 0
Wind_Speed
3 3 3 3 3 3 3 3 4 5 5 5 5 6 6 6 6 5 5 11 11 11 11 10 10 10 9 9 9 8 8 8 8 8 9 10 10 9 8 8 8 8 8
3 2 3 3 3 3 3 3 4 4 4 4 6 6 6 6 6 5 5 6 10 12 12 11 11 10 10 9 9 8 8 8 8 8 9 9 9 9 9 9 9 9 9
3 3 3 3 3 3 4 4 5 4 4 4 5 6 6 6 6 6 5 4 6 10 12 12 12 12 11 10 9 9 9 8 9 9 9 9 9 9 9 9 9 9 9
4 3 3 3 3 3 3 3 3 4 4 4 4 4 4 4 6 6 5 5 5 5 9 12 12 12 12 11 10 9 9 9 9 9 9 9 9 9 8 9 9 9 9
3 3 3 3 3 2 3 3 3 3 4 4 4 4 4 4 4 5 6 6 6 5 5 7 9 11 12 12 11 10 9 9 9 9 9 9 9 9 8 8 8 9 9
3 3 3 3 3 2 2 3 4 3 3 3 4 4 4 4 4 4 5 5 5 6 6 5 4 7 11 12 12 11 11 10 9 9 9 9 9 8 8 8 8 9 9
2 3 2 3 2 2 3 4 3 4 3 2 2 3 4 4 4 4 4 4 5 5 5 5 4 4 4 9 11 11 11 11 10 10 10 9 9 8 8 8 8 8 9
2 2 2 2 2 2 3 3 3 2 2 1 0 1 2 3 3 4 3 3 4 4 4 5 5 5 5 4 7 10 11 11 10 10 11 10 9 9 8 8 8 8 8
2 2 2 2 2 2 2 3 3 2 1 1 1 2 1 2 2 3 4 3 4 4 4 4 5 5 5 4 5 8 11 11 10 10 10 10 10 10 9 8 8 8 9
2 2 2 1 1 1 2 2 2 1 1 1 1 1 2 2 0 2 2 3 4 4 4 3 4 5 5 4 6 9 10 10 10 10 9 9 10 10 9 8 8 8 8
2 2 2 1 1 1 1 1 1 2 2 1 0 1 1 0 1 0 1 2 2 2 3 3 3 4 5 5 5 9 10 10 10 9 9 9 10 10 11 10 9 9 9
2 2 2 2 1 1 1 2 2 2 1 1 1 0 1 1 0 0 1 1 2 2 3 3 3 3 3 4 7 9 9 9 10 10 10 10 10 10 11 11 11 10 10
2 2 2 2 1 1 1 1 2 2 2 2 2 1 1 1 1 1 1 1 1 2 2 2 2 2 3 3 4 6 8 8 9 9 10 10 11 11 11 11 11 11 11
1 2 1 1 1 1 1 1 1 1 1 2 1 1 1 1 1 1 1 1 1 2 2 2 2 3 2 2 4 2 5 8 8 9 9 9 9 10 10 10 10 11 11
2 2 2 2 1 1 1 1 1 1 1 1 1 1 1 0 1 1 1 1 2 1 2 3 2 2 2 2 3 2 4 8 8 8 8 8 8 8 9 9 9 10 10
2 2 3 2 2 2 2 1 0 0 1 1 0 1 1 1 1 1 1 0 1 2 1 2 2 2 2 1 2 2 4 6 6 6 7 7 7 7 7 8 8 8 8
3 3 2 2 2 3 2 2 1 1 1 1 2 2 1 1 1 1 1 1 0 0 1 2 2 2 2 2 2 1 1 2 4 6 6 6 7 7 6 7 7 7 7
2 2 2 3 2 2 2 2 2 1 1 0 1 2 2 2 2 1 1 1 1 1 1 2 2 2 2 2 1 1 1 1 2 6 5 5 6 5 5 5 6 6 6
3 3 3 3 3 3 2 2 2 2 1 1 0 1 1 2 2 2 2 1 1 1 1 1 2 2 1 1 1 1 1 1 1 3 3 3 4 5 5 5 5 5 5
3 3 3 3 3 3 3 3 2 2 2 1 1 1 1 1 2 2 2 2 2 2 1 1 2 2 1 1 1 1 1 1 0 1 2 2 3 3 4 5 5 5 5
4 4 3 3 3 2 2 2 3 2 2 2 2 2 1 2 3 1 0 1 2 2 2 1 1 1 1 1 1 1 1 1 1 1 1 1 1 1 2 3 4 4 4
5 4 4 4 3 2 1 1 3 3 3 3 3 3 3 4 4 3 2 2 2 1 1 2 1 1 1 1 0 1 1 1 0 1 2 1 1 1 2 3 5 4 4
5 5 4 4 4 3 4 4 3 3 3 2 2 2 2 3 5 5 6 5 2 1 2 2 1 1 1 1 1 2 1 2 1 1 2 2 0 1 1 3 6 4 4
5 5 5 5 4 4 6 6 5 4 3 3 3 3 3 4 4 4 5 4 4 3 3 3 2 1 1 1 2 2 2 2 2 1 1 3 1 2 1 1 5 3 3
5 5 5 5 6 6 7 7 6 4 4 4 3 3 3 3 3 3 5 5 4 4 3 1 2 2 4 4 2 2 2 2 2 1 1 2 2 2 2 1 3 4 2
5 5 5 5 6 6 7 8 8 4 5 4 3 3 1 2 4 5 5 5 4 4 4 5 4 4 3 2 2 3 3 3 3 2 1 2 2 2 2 1 0 1 2
Wind_Direction
79 84 89 83 76 77 89 83 85 82 78 72 66 63 60 56 52 50 66 53 45 45 45 51 56 57 57 56 52 48 47 45 41 38 34 32 37 40 36 34 32 28 26
82 83 86 83 80 79 78 90 92 88 83 74 68 62 56 56 56 54 59 74 61 47 45 48 52 52 52 53 50 46 42 41 42 40 37 37 35 36 36 34 33 29 28
80 82 77 84 85 93 96 93 94 89 87 87 78 69 62 50 51 53 51 50 69 65 50 45 47 48 47 47 48 49 46 44 44 41 40 39 38 36 34 34 36 33 30
87 85 88 85 89 94 96 96 93 93 87 81 77 70 69 62 52 47 50 53 49 55 64 50 44 44 44 44 44 46 48 47 45 43 41 40 39 36 35 34 37 35 31
95 101 91 96 102 96 95 102 99 95 93 86 82 76 67 63 57 48 48 50 55 52 56 66 55 47 41 38 38 41 45 46 44 44 41 39 39 36 36 36 38 37 35
95 98 113 120 109 102 101 104 102 96 95 95 87 81 74 70 62 51 42 47 46 49 47 43 48 61 49 38 35 38 41 43 45 44 41 38 36 35 35 37 40 39 38
113 103 115 106 111 116 125 129 122 119 115 118 121 110 98 79 63 57 45 46 54 47 45 43 37 34 54 52 37 34 36 38 42 42 41 39 36 35 34 39 42 42 40
127 125 136 133 133 135 144 140 142 135 126 167 271 170 140 123 85 63 59 53 51 52 44 44 44 42 34 35 47 36 31 32 38 40 39 38 37 35 35 40 43 45 44
134 155 139 142 148 158 154 166 169 170 160 169 332 320 318 75 97 96 66 63 50 45 43 37 42 40 38 34 34 44 31 28 35 39 37 36 37 36 36 44 46 47 46
147 163 158 172 165 171 171 186 184 201 204 177 125 3 6 35 261 124 108 78 60 49 40 39 38 35 33 38 46 39 33 29 34 37 35 34 36 37 39 46 48 47 47
151 163 170 179 190 189 205 214 199 226 221 250 292 114 87 125 275 268 117 118 97 65 47 38 41 35 32 33 35 45 36 32 33 33 33 33 35 39 40 47 49 50 50
149 150 181 194 201 200 211 216 213 220 249 274 284 251 247 261 222 220 148 135 106 85 69 52 40 45 39 35 41 42 38 34 33 33 33 34 36 39 41 45 48 50 49
155 151 183 192 207 209 215 216 215 220 219 235 256 281 281 297 306 264 187 134 122 121 101 84 63 57 51 44 47 39 47 38 36 37 37 39 38 39 41 43 45 46 46
149 145 181 175 189 201 199 196 229 218 234 229 247 258 262 283 260 249 251 202 182 152 142 107 96 78 63 51 43 3 61 51 40 41 42 41 40 41 42 43 43 43 43
158 166 175 167 151 181 191 170 184 173 212 247 241 211 225 168 238 242 226 262 291 247 122 106 101 82 80 63 36 52 62 62 48 43 42 41 43 46 46 45 44 43 42
172 183 190 174 159 169 167 163 172 61 197 137 203 223 194 147 117 177 225 256 310 319 70 94 99 91 68 92 71 50 70 81 57 47 43 43 46 50 51 48 46 44 42
183 181 194 183 175 177 169 155 191 184 200 167 167 163 162 156 164 153 168 167 144 49 120 108 108 114 124 95 94 72 69 74 84 67 49 46 48 50 51 50 48 45 42
192 187 182 186 186 187 183 170 178 187 195 179 146 155 155 147 165 156 170 168 135 137 143 126 133 126 114 95 79 66 80 74 73 82 67 52 47 49 51 50 48 45 41
200 189 188 190 186 190 188 187 184 185 180 182 177 174 162 159 165 150 173 149 132 131 145 162 127 114 131 111 132 153 115 59 75 107 113 88 61 53 53 49 46 45 44
204 203 196 190 192 196 199 193 189 187 187 173 160 174 180 174 182 171 165 161 159 152 153 162 153 145 148 132 227 230 169 123 53 60 78 80 97 95 67 50 47 47 46
207 207 208 206 198 203 216 217 193 197 197 184 180 172 143 87 50 58 121 163 173 182 171 172 173 170 161 165 228 268 286 264 132 18 327 42 103 69 100 84 56 45 44
211 208 214 210 205 199 137 270 262 209 208 208 202 191 165 160 145 133 82 45 10 260 193 180 195 209 208 196 249 274 285 283 249 80 306 333 8 18 31 40 59 67 52
208 208 212 210 209 185 160 177 230 250 233 230 222 199 180 168 182 177 168 175 170 347 326 291 253 273 268 262 246 252 279 297 315 29 306 293 336 327 44 67 75 67 56
205 209 209 207 207 190 171 177 193 213 217 219 225 221 204 193 193 195 178 176 175 176 201 233 259 283 317 307 263 285 293 264 254 171 295 294 310 303 308 111 106 82 51
210 210 208 207 209 197 178 183 197 199 203 210 213 223 224 208 144 194 202 194 185 170 141 117 19 33 43 29 339 256 252 256 265 197 180 279 294 296 277 232 129 135 109
214 215 212 214 215 211 177 182 205 208 206 203 202 201 186 242 152 188 212 209 208 197 184 175 185 196 209 182 203 247 265 270 282 278 106 270 287 294 277 234 272 203 201